E2883 Weather Reports


Display with metric or nautical units.
time (UTC)temp
F
wind
direction
speed
MPH
gust
MPH
rain 1hr
in
rain 24hr
in
rain mn
in
humidity
%
barometer
mb
20210920175936 94 205 1.0 7.0 0.00 0.00 0.00 44 1008.7
20210920175435 93 187 1.0 9.0 0.00 0.00 0.00 45 1008.7
20210920174933 93 182 2.0 9.0 0.00 0.00 0.00 45 1008.8
20210920174431 93 188 1.0 8.0 0.00 0.00 0.00 45 1008.8
20210920173930 93 252 1.0 9.0 0.00 0.00 0.00 45 1008.9
20210920173430 93 242 1.0 9.0 0.00 0.00 0.00 46 1009.0
20210920172930 93 226 1.0 9.0 0.00 0.00 0.00 46 1009.1
20210920172431 92 195 1.0 9.0 0.00 0.00 0.00 46 1009.2
20210920171921 91 203 2.0 10.0 0.00 0.00 0.00 47 1009.0
20210920171432 91 191 2.0 11.0 0.00 0.00 0.00 48 1009.1
20210920170918 91 223 1.0 11.0 0.00 0.00 0.00 47 1009.1
20210920170419 91 219 2.0 8.0 0.00 0.00 0.00 48 1009.2
20210920165919 91 192 1.0 8.0 0.00 0.00 0.00 49 1009.2
20210920165421 90 220 1.0 7.0 0.00 0.00 0.00 52 1009.3
20210920164913 90 209 1.0 7.0 0.00 0.00 0.00 51 1009.1
20210920164417 90 221 1.0 6.0 0.00 0.00 0.00 51 1009.2
20210920163913 89 223 1.0 6.0 0.00 0.00 0.00 55 1009.2
20210920163412 88 222 1.0 6.0 0.00 0.00 0.00 56 1009.1
20210920162902 88 196 0.0 6.0 0.00 0.00 0.00 57 1009.1
20210920162402 88 212 0.0 5.0 0.00 0.00 0.00 58 1009.1
20210920161908 87 224 1.0 9.0 0.00 0.00 0.00 59 1009.1
20210920161403 87 231 1.0 9.0 0.00 0.00 0.00 60 1009.1
20210920160903 87 192 1.0 5.0 0.00 0.00 0.00 60 1009.1
20210920160402 87 203 1.0 6.0 0.00 0.00 0.00 63 1009.1
20210920155918 86 207 1.0 6.0 0.00 0.00 0.00 64 1009.1
20210920155403 85 205 2.0 12.0 0.00 0.00 0.00 65 1009.0
20210920154908 85 195 2.0 12.0 0.00 0.00 0.00 67 1008.9
20210920154411 85 210 1.0 8.0 0.00 0.00 0.00 67 1008.9
20210920153901 85 212 1.0 6.0 0.00 0.00 0.00 69 1008.8
20210920153401 84 193 1.0 6.0 0.00 0.00 0.00 70 1008.9
20210920152904 83 192 1.0 6.0 0.00 0.00 0.00 72 1008.7
20210920152411 83 198 0.0 7.0 0.00 0.00 0.00 74 1008.8
20210920151901 82 200 0.0 7.0 0.00 0.00 0.00 75 1008.8
20210920151402 82 199 1.0 5.0 0.00 0.00 0.00 77 1008.5
20210920150908 81 208 2.0 7.0 0.00 0.00 0.00 78 1008.4
20210920150418 81 207 1.0 7.0 0.00 0.00 0.00 79 1008.4
20210920145917 80 205 0.0 2.0 0.00 0.00 0.00 80 1008.4
20210920145402 80 205 0.0 4.0 0.00 0.00 0.00 81 1008.3
20210920144902 79 205 2.0 7.0 0.00 0.00 0.00 81 1008.2
20210920144400 79 205 1.0 7.0 0.00 0.00 0.00 81 1008.2
20210920143903 78 205 0.0 6.0 0.00 0.00 0.00 83 1008.2
20210920143401 78 205 0.0 6.0 0.00 0.00 0.00 83 1008.2
20210920142903 78 205 0.0 5.0 0.00 0.00 0.00 84 1008.0
20210920142402 78 205 0.0 1.0 0.00 0.00 0.00 84 1008.1
20210920141908 77 205 0.0 3.0 0.00 0.00 0.00 85 1008.0
20210920141402 77 205 0.0 3.0 0.00 0.00 0.00 86 1008.0
20210920140901 77 204 0.0 2.0 0.00 0.00 0.00 87 1007.9
20210920140402 76 204 0.0 2.0 0.00 0.00 0.00 87 1007.9
20210920135909 76 204 0.0 1.0 0.00 0.00 0.00 87 1007.9
20210920135401 75 204 1.0 5.0 0.00 0.00 0.00 87 1007.8
20210920134901 75 204 1.0 5.0 0.00 0.00 0.00 87 1007.7
20210920134401 75 204 1.0 3.0 0.00 0.00 0.00 88 1007.7
20210920133909 75 204 1.0 3.0 0.00 0.00 0.00 88 1007.7
20210920133403 74 204 1.0 2.0 0.00 0.00 0.00 88 1007.6
20210920132905 74 204 1.0 2.0 0.00 0.00 0.00 88 1007.6
20210920132403 74 204 1.0 2.0 0.00 0.00 0.00 88 1007.5
20210920131904 73 204 1.0 2.0 0.00 0.00 0.00 88 1007.5
20210920131400 73 204 1.0 2.0 0.00 0.00 0.00 88 1007.3
20210920130856 73 204 1.0 2.0 0.00 0.00 0.00 88 1007.3
20210920130354 73 204 1.0 2.0 0.00 0.00 0.00 88 1007.3
20210920125855 72 204 1.0 2.0 0.00 0.00 0.00 88 1007.2
20210920125344 72 204 1.0 4.0 0.00 0.00 0.00 88 1007.1
20210920124843 72 204 1.0 4.0 0.00 0.00 0.00 88 1007.1
20210920124333 71 204 1.0 4.0 0.00 0.00 0.00 88 1007.0
20210920123833 71 204 0.0 0.0 0.00 0.00 0.00 88 1007.0
20210920123331 71 204 0.0 1.0 0.00 0.00 0.00 88 1007.0
20210920122831 71 204 0.0 1.0 0.00 0.00 0.00 88 1007.0
20210920122330 71 204 0.0 1.0 0.00 0.00 0.00 88 1006.9
20210920121822 71 204 0.0 1.0 0.00 0.00 0.00 88 1006.8
20210920121318 71 204 0.0 1.0 0.00 0.00 0.00 88 1006.9
20210920120815 72 204 0.0 1.0 0.00 0.00 0.00 88 1006.9
20210920120305 72 204 0.0 1.0 0.00 0.00 0.00 88 1006.9
20210920115804 72 204 0.0 1.0 0.00 0.00 0.00 88 1006.8
20210920115300 72 204 1.0 2.0 0.00 0.00 0.00 88 1006.8
20210920114800 72 204 1.0 2.0 0.00 0.00 0.00 88 1006.8
20210920114241 72 204 1.0 2.0 0.00 0.00 0.00 88 1006.8
20210920113743 72 204 1.0 3.0 0.00 0.00 0.00 88 1006.7
20210920113240 72 204 1.0 3.0 0.00 0.00 0.00 88 1006.7
20210920112741 72 204 1.0 3.0 0.00 0.00 0.00 88 1006.7
20210920112240 73 204 1.0 3.0 0.00 0.00 0.00 88 1006.7
20210920111731 73 204 1.0 3.0 0.00 0.00 0.00 87 1006.6
20210920111230 73 204 1.0 3.0 0.00 0.00 0.00 87 1006.6
20210920110726 73 204 2.0 3.0 0.00 0.00 0.00 87 1006.6
20210920110226 73 204 2.0 3.0 0.00 0.00 0.00 87 1006.6
20210920105726 73 204 2.0 3.0 0.00 0.00 0.00 87 1006.6
20210920105227 73 204 2.0 4.0 0.00 0.00 0.00 87 1006.6
20210920104724 73 204 2.0 4.0 0.00 0.00 0.00 87 1006.5
20210920104232 73 204 2.0 4.0 0.00 0.00 0.00 87 1006.5
20210920103716 73 204 1.0 4.0 0.00 0.00 0.00 87 1006.5
20210920103211 73 204 1.0 3.0 0.00 0.00 0.00 86 1006.6
20210920102711 73 204 1.0 3.0 0.00 0.00 0.00 86 1006.6
20210920102211 73 204 2.0 3.0 0.00 0.00 0.00 86 1006.6
20210920101711 73 204 2.0 3.0 0.00 0.00 0.00 86 1006.5
20210920101204 74 204 2.0 4.0 0.00 0.00 0.00 86 1006.6
20210920100707 74 204 2.0 4.0 0.00 0.00 0.00 86 1006.6
20210920100204 74 204 2.0 5.0 0.00 0.00 0.00 85 1006.6
20210920095702 74 204 2.0 5.0 0.00 0.00 0.00 85 1006.7
20210920095202 74 204 2.0 4.0 0.00 0.00 0.00 85 1006.7
20210920094702 74 204 2.0 4.0 0.00 0.00 0.00 85 1006.8
20210920094208 74 204 2.0 4.0 0.00 0.00 0.00 84 1006.8
20210920093703 74 204 2.0 4.0 0.00 0.00 0.00 84 1006.9
20210920093201 74 204 2.0 4.0 0.00 0.00 0.00 84 1007.0
20210920092702 74 204 2.0 4.0 0.00 0.00 0.00 83 1007.0
20210920092203 74 204 2.0 4.0 0.00 0.00 0.00 83 1007.0
20210920091703 74 204 2.0 5.0 0.00 0.00 0.00 83 1007.0
20210920091203 75 204 2.0 5.0 0.00 0.00 0.00 82 1007.0
20210920090702 75 204 2.0 4.0 0.00 0.00 0.00 82 1007.1
20210920090203 75 204 3.0 7.0 0.00 0.00 0.00 81 1007.1
20210920085701 75 204 2.0 7.0 0.00 0.00 0.00 81 1007.0
20210920085445 75 204 1.0 6.0 0.00 0.00 0.00 80 1007.1
20210920084702 75 204 1.0 6.0 0.00 0.00 0.00 80 1007.2
20210920084205 76 205 3.0 6.0 0.00 0.00 0.00 80 1007.2
20210920083700 76 205 3.0 6.0 0.00 0.00 0.00 80 1007.2
20210920083202 75 203 3.0 5.0 0.00 0.00 0.00 80 1007.2
20210920082705 75 202 2.0 4.0 0.00 0.00 0.00 80 1007.1
20210920082202 75 202 2.0 4.0 0.00 0.00 0.00 80 1007.2
20210920081700 75 202 2.0 4.0 0.00 0.00 0.00 80 1007.2
20210920081205 75 202 2.0 4.0 0.00 0.00 0.00 79 1007.2
20210920080700 75 202 2.0 4.0 0.00 0.00 0.00 79 1007.3
20210920080202 76 202 2.0 3.0 0.00 0.00 0.00 79 1007.3
20210920075704 76 202 2.0 3.0 0.00 0.00 0.00 79 1007.3
20210920075203 76 202 2.0 3.0 0.00 0.00 0.00 79 1007.4
20210920074702 76 202 2.0 4.0 0.00 0.00 0.00 78 1007.4
20210920074208 76 202 2.0 4.0 0.00 0.00 0.00 78 1007.4
20210920073705 77 202 2.0 4.0 0.00 0.00 0.00 78 1007.5
20210920073201 77 202 2.0 5.0 0.00 0.00 0.00 77 1007.5
20210920072700 77 202 2.0 5.0 0.00 0.00 0.00 77 1007.5
20210920072205 77 203 2.0 3.0 0.00 0.00 0.00 77 1007.6
20210920071704 77 203 2.0 6.0 0.00 0.00 0.00 77 1007.5
20210920071203 78 202 3.0 6.0 0.00 0.00 0.00 77 1007.6
20210920070703 78 202 2.0 5.0 0.00 0.00 0.00 77 1007.6
20210920070202 78 203 1.0 4.0 0.00 0.00 0.00 77 1007.5
20210920065703 78 203 3.0 6.0 0.00 0.00 0.00 77 1007.6
20210920065203 78 203 2.0 10.0 0.00 0.00 0.00 77 1007.6
20210920064703 77 198 0.0 10.0 0.00 0.00 0.00 78 1007.6
20210920064205 78 198 0.0 1.0 0.00 0.00 0.00 78 1007.6
20210920063700 78 198 1.0 4.0 0.00 0.00 0.00 77 1007.5
20210920063202 78 198 2.0 4.0 0.00 0.00 0.00 77 1007.5
20210920062701 78 198 2.0 5.0 0.00 0.00 0.00 77 1007.6
20210920062201 78 198 3.0 6.0 0.00 0.00 0.00 77 1007.6
20210920061702 79 198 3.0 8.0 0.00 0.00 0.00 76 1007.6
20210920061205 79 198 2.0 8.0 0.00 0.00 0.00 76 1007.6
20210920060701 79 202 1.0 7.0 0.00 0.00 0.00 77 1007.6
20210920060205 79 196 0.0 3.0 0.00 0.00 0.00 77 1007.7
20210920055702 79 196 0.0 7.0 0.00 0.00 0.00 77 1007.6
20210920055204 79 196 0.0 7.0 0.00 0.00 0.00 77 1007.6
20210920054702 79 196 0.0 3.0 0.00 0.00 0.00 77 1007.7
20210920054202 79 194 2.0 7.0 0.00 0.00 0.00 77 1007.6
20210920053705 79 194 3.0 7.0 0.00 0.00 0.00 77 1007.6
20210920053203 79 194 3.0 8.0 0.00 0.00 0.00 76 1007.6
20210920052702 79 193 4.0 8.0 0.00 0.00 0.00 76 1007.5
20210920052202 80 191 4.0 10.0 0.00 0.00 0.00 76 1007.6
20210920051700 80 190 3.0 10.0 0.00 0.00 0.00 75 1007.6
20210920051202 80 188 3.0 8.0 0.00 0.00 0.00 75 1007.7
20210920050704 80 189 3.0 7.0 0.00 0.00 0.00 74 1007.8
20210920050204 80 189 3.0 12.0 0.00 0.00 0.00 73 1007.8
20210920045705 80 189 4.0 12.0 0.00 0.00 0.00 73 1007.8
20210920045203 80 186 4.0 8.0 0.00 0.00 0.00 73 1007.7
20210920044706 81 189 4.0 8.0 0.00 0.00 0.00 72 1007.7
20210920044203 81 190 4.0 8.0 0.00 0.00 0.00 71 1007.7
20210920043702 81 191 3.0 8.0 0.00 0.00 0.00 71 1007.7
20210920043205 80 192 4.0 11.0 0.00 0.00 0.00 70 1007.7
20210920042702 80 190 3.0 11.0 0.00 0.00 0.00 68 1007.7
20210920042203 80 190 3.0 8.0 0.00 0.00 0.00 67 1007.6
20210920041702 80 190 3.0 8.0 0.00 0.00 0.00 67 1007.6
20210920041157 80 190 2.0 6.0 0.00 0.00 0.00 66 1007.5
20210920040650 80 191 2.0 8.0 0.00 0.00 0.00 66 1007.5
20210920040140 79 191 2.0 8.0 0.00 0.00 0.00 66 1007.4
20210920035631 79 191 0.0 3.0 0.00 0.00 0.00 67 1007.4
20210920035131 79 191 0.0 0.0 0.00 0.00 0.00 66 1007.2
20210920034622 79 191 0.0 0.0 0.00 0.00 0.00 66 1007.2
20210920034124 79 191 0.0 0.0 0.00 0.00 0.00 66 1007.1
20210920033604 79 191 0.0 0.0 0.00 0.00 0.00 66 1007.1
20210920033103 80 191 0.0 0.0 0.00 0.00 0.00 66 1007.1
20210920032602 80 191 0.0 0.0 0.00 0.00 0.00 66 1007.1
20210920032103 80 191 0.0 0.0 0.00 0.00 0.00 65 1007.1
20210920031550 80 191 0.0 0.0 0.00 0.00 0.00 65 1007.1
20210920031039 80 191 0.0 1.0 0.00 0.00 0.00 65 1007.0
20210920030534 80 191 0.0 1.0 0.00 0.00 0.00 65 1006.9
20210920030032 80 191 0.0 1.0 0.00 0.00 0.00 65 1006.9
20210920025525 80 191 0.0 1.0 0.00 0.00 0.00 65 1006.9
20210920025023 80 191 0.0 1.0 0.00 0.00 0.00 64 1006.8
20210920024515 81 191 0.0 1.0 0.00 0.00 0.00 64 1006.9
20210920024015 81 191 0.0 1.0 0.00 0.00 0.00 64 1006.7
20210920023505 81 191 0.0 2.0 0.00 0.00 0.00 64 1006.7
20210920023006 81 191 0.0 2.0 0.00 0.00 0.00 65 1006.6
20210920022502 81 191 0.0 1.0 0.00 0.00 0.00 64 1006.7
20210920022008 81 191 0.0 1.0 0.00 0.00 0.00 65 1006.7
20210920021503 82 191 0.0 1.0 0.00 0.00 0.00 66 1006.6
20210920021005 82 191 0.0 1.0 0.00 0.00 0.00 65 1006.6
20210920020503 82 191 0.0 1.0 0.00 0.00 0.00 65 1006.5
20210920020003 82 191 0.0 1.0 0.00 0.00 0.00 64 1006.4
20210920015501 82 191 0.0 1.0 0.00 0.00 0.00 64 1006.4
20210920015004 83 191 0.0 1.0 0.00 0.00 0.00 64 1006.5
20210920014502 83 191 0.0 0.0 0.00 0.00 0.00 63 1006.4
20210920014002 83 191 0.0 0.0 0.00 0.00 0.00 63 1006.4
20210920013506 83 191 0.0 0.0 0.00 0.00 0.00 62 1006.3
20210920013006 84 191 0.0 1.0 0.00 0.00 0.00 62 1006.4
20210920012503 84 191 0.0 2.0 0.00 0.00 0.00 61 1006.4
20210920012002 84 191 0.0 2.0 0.00 0.00 0.00 61 1006.4
20210920011502 84 191 0.0 2.0 0.00 0.00 0.00 60 1006.4
20210920011003 85 191 0.0 2.0 0.00 0.00 0.00 59 1006.3
20210920010501 85 191 0.0 2.0 0.00 0.00 0.00 58 1006.4
20210920010003 85 191 0.0 2.0 0.00 0.00 0.00 58 1006.3
20210920005505 86 191 1.0 2.0 0.00 0.00 0.00 57 1006.4
20210920005002 86 191 1.0 4.0 0.00 0.00 0.00 56 1006.4
20210920004503 86 191 1.0 4.0 0.00 0.00 0.00 56 1006.4
20210920004005 87 191 0.0 3.0 0.00 0.00 0.00 55 1006.3
20210920003508 87 191 1.0 3.0 0.00 0.00 0.00 55 1006.2
20210920003007 87 191 1.0 5.0 0.00 0.00 0.00 54 1006.3
20210920002504 87 191 1.0 5.0 0.00 0.00 0.00 54 1006.4
20210920002007 88 191 1.0 4.0 0.00 0.00 0.00 53 1006.4
20210920001502 88 191 1.0 6.0 0.00 0.00 0.00 52 1006.4
20210920001005 89 192 1.0 6.0 0.00 0.00 0.00 52 1006.4
20210920000502 89 192 1.0 6.0 0.00 0.00 0.00 51 1006.5
20210920000003 89 192 1.0 6.0 0.00 0.00 0.00 51 1006.4
20210919235505 90 191 0.0 5.0 0.00 0.00 0.00 50 1006.5
20210919235005 90 191 0.0 5.0 0.00 0.00 0.00 50 1006.5
20210919234505 90 192 1.0 9.0 0.00 0.00 0.00 49 1006.5
20210919234003 90 192 1.0 9.0 0.00 0.00 0.00 49 1006.4
20210919233503 90 188 1.0 7.0 0.00 0.00 0.00 49 1006.5
20210919233002 91 192 1.0 4.0 0.00 0.00 0.00 49 1006.5
20210919232503 91 193 2.0 4.0 0.00 0.00 0.00 49 1006.5
20210919232006 91 192 2.0 10.0 0.00 0.00 0.00 49 1006.5
20210919231505 91 194 1.0 10.0 0.00 0.00 0.00 49 1006.5
20210919231008 91 193 1.0 6.0 0.00 0.00 0.00 49 1006.5
20210919230505 91 200 1.0 7.0 0.00 0.00 0.00 48 1006.6
20210919230008 91 182 2.0 7.0 0.00 0.00 0.00 49 1006.5
20210919225503 90 180 2.0 9.0 0.00 0.00 0.00 50 1006.4
20210919225001 89 178 2.0 9.0 0.00 0.00 0.00 51 1006.4
20210919224500 89 84 2.0 5.0 0.00 0.00 0.00 50 1006.5
20210919224005 89 84 2.0 7.0 0.00 0.00 0.00 50 1006.4
20210919223501 89 82 3.0 8.0 0.00 0.00 0.00 50 1006.4
20210919223005 89 82 5.0 13.0 0.00 0.00 0.00 50 1006.4
20210919222502 90 84 4.0 13.0 0.00 0.00 0.00 49 1006.4
20210919222003 91 84 5.0 12.0 0.00 0.00 0.00 48 1006.5
20210919221452 91 85 5.0 12.0 0.00 0.00 0.00 45 1006.4
20210919220950 92 88 4.0 12.0 0.00 0.00 0.00 44 1006.4
20210919220444 93 97 3.0 12.0 0.00 0.00 0.00 43 1006.5
20210919215938 93 171 2.0 7.0 0.00 0.00 0.00 40 1006.5
20210919215436 93 173 0.0 0.0 0.00 0.00 0.00 40 1006.6
20210919214932 94 177 0.0 1.0 0.00 0.00 0.00 39 1006.6
20210919214421 94 177 0.0 4.0 0.00 0.00 0.00 39 1006.6
20210919213914 94 180 0.0 4.0 0.00 0.00 0.00 39 1006.6
20210919213414 94 181 0.0 1.0 0.00 0.00 0.00 40 1006.6
20210919212915 93 186 0.0 4.0 0.00 0.00 0.00 39 1006.6
20210919212412 94 207 2.0 4.0 0.00 0.00 0.00 40 1006.7
20210919211909 93 208 1.0 4.0 0.00 0.00 0.00 40 1006.7
20210919211410 93 209 0.0 3.0 0.00 0.00 0.00 40 1006.7
20210919210903 94 209 0.0 2.0 0.00 0.00 0.00 40 1006.8
20210919210406 93 211 1.0 7.0 0.00 0.00 0.00 41 1006.8
20210919205905 93 205 3.0 9.0 0.00 0.00 0.00 40 1006.9
20210919205405 93 105 3.0 9.0 0.00 0.00 0.00 40 1006.9
20210919204905 94 121 2.0 7.0 0.00 0.00 0.00 39 1007.0
20210919204405 95 190 1.0 6.0 0.00 0.00 0.00 38 1007.2
20210919203904 96 190 1.0 6.0 0.00 0.00 0.00 36 1007.3
20210919203401 97 222 1.0 5.0 0.00 0.00 0.00 36 1007.3
20210919202902 97 222 0.0 5.0 0.00 0.00 0.00 37 1007.4
20210919202405 96 234 0.0 2.0 0.00 0.00 0.00 38 1007.5
20210919201906 96 239 0.0 1.0 0.00 0.00 0.00 39 1007.5
20210919201406 94 241 0.0 0.0 0.00 0.00 0.00 39 1007.6
20210919200902 94 242 0.0 0.0 0.00 0.00 0.00 38 1007.7
20210919200405 95 242 1.0 6.0 0.00 0.00 0.00 37 1007.8
20210919195902 96 242 1.0 6.0 0.00 0.00 0.00 37 1007.9
20210919195406 96 232 0.0 6.0 0.00 0.00 0.00 38 1008.0
20210919194902 95 232 0.0 6.0 0.00 0.00 0.00 39 1008.2
20210919194406 94 232 0.0 4.0 0.00 0.00 0.00 39 1008.2
20210919193903 94 232 0.0 7.0 0.00 0.00 0.00 40 1008.2
20210919193401 95 228 1.0 7.0 0.00 0.00 0.00 40 1008.5
20210919192902 95 220 1.0 7.0 0.00 0.00 0.00 41 1008.7
20210919192403 96 220 1.0 7.0 0.00 0.00 0.00 39 1008.8
20210919191907 96 228 0.0 7.0 0.00 0.00 0.00 41 1008.9
20210919191404 95 232 0.0 2.0 0.00 0.00 0.00 41 1008.9
20210919190903 95 233 1.0 4.0 0.00 0.00 0.00 43 1009.0
20210919190407 94 233 1.0 4.0 0.00 0.00 0.00 44 1009.0
20210919185906 94 233 0.0 3.0 0.00 0.00 0.00 43 1009.1
20210919185404 94 232 1.0 8.0 0.00 0.00 0.00 43 1009.2
20210919184902 94 228 1.0 8.0 0.00 0.00 0.00 43 1009.3
20210919184405 94 217 1.0 4.0 0.00 0.00 0.00 44 1009.4
20210919183906 94 216 1.0 4.0 0.00 0.00 0.00 43 1009.5
20210919183404 94 215 2.0 5.0 0.00 0.00 0.00 44 1009.6
20210919182902 92 215 1.0 6.0 0.00 0.00 0.00 44 1009.7
20210919182400 93 219 0.0 6.0 0.00 0.00 0.00 42 1009.8
20210919181902 92 223 1.0 7.0 0.00 0.00 0.00 45 1009.8
20210919181402 92 219 0.0 7.0 0.00 0.00 0.00 45 1009.9
20210919180902 93 216 0.0 6.0 0.00 0.00 0.00 46 1010.1